RWRRAH
NORTH CAROLINA WEATHER ROUNDUP
NATIONAL WEATHER SERVICE RALEIGH NC
1200 AM EST SUN DEC 26 2004

NOTE: "FAIR" INDICATES FEW OR NO CLOUDS BELOW 12,000 FEET WITH NO
SIGNIFICANT WEATHER AND/OR OBSTRUCTIONS TO VISIBILITY.

NCZ001-053-055-056-065-067-260600-
WESTERN NORTH CAROLINA
  
CITY           SKY/WX    TMP DP  RH WIND       PRES   REMARKS
ASHEVILLE      MOCLDY    27  19  72 CALM      30.11S                  
JEFFERSON      NOT AVBL                                               
HICKORY        PTCLDY    27  17  66 E7        30.17F WCI  19          
RUTHERFORDTON  NOT AVBL                                               
$$
 
NCZ021-022-025-041-071-084-088-260600-
CENTRAL NORTH CAROLINA
  
CITY           SKY/WX    TMP DP  RH WIND       PRES   REMARKS
CHARLOTTE      CLOUDY    30  18  60 N9        30.18F WCI  22          
GREENSBORO     PTCLDY    26  15  63 NE8       30.21F WCI  18          
WINSTON-SALEM  PTCLDY    28  15  58 NE7       30.22S WCI  21          
RALEIGH-DURHAM CLOUDY    30  16  56 NE10      30.21F WCI  21          
FAYETTEVILLE   CLOUDY    33  19  56 NE13      30.15F WCI  24          
$$
 
NCZ011-015-027-028-043-044-047-080-103-260600-
NORTHEASTERN NORTH CAROLINA
  
CITY           SKY/WX    TMP DP  RH WIND       PRES   REMARKS
ROANOKE RAPIDS CLOUDY    28  17  63 VRB6      30.24F WCI  22          
ROCKY MT-WILSO CLOUDY    30  20  66 N10       30.21F WCI  21          
ELIZABETH CITY MOCLDY    33  27  78 N15       30.19F WCI  23          
MANTEO         NOT AVBL                                               
CAPE HATTERAS  LGT RAIN  50  41  71 N12G20    30.11F                  
$$
 
NCZ078-087-090-091-093-098-101-260600-
SOUTHEASTERN NORTH CAROLINA
  
CITY           SKY/WX    TMP DP  RH WIND       PRES   REMARKS
LUMBERTON      MIX PCPN  33  21  61 N12       30.15F WCI  24          
NEW BERN       LGT RAIN  33  27  78 N13       30.15F WCI  24          
BEAUFORT       LGT RAIN  37  36  96 N20G28    30.10F WCI  27          
WILMINGTON     LGT RAIN  33  29  85 N14       30.10F WCI  23          
$$